Location: Gniazdowice
(50.2124°N, 20.2673°E)
Time: 00:19:53
(UTC+00:00)

ATLAS 2AS CENTAUR R/B - Pass Details

Date: 23 May 2024
Orbit: 1017 x 1194 km, 63.7° (Epoch: 18 June)

Event Time Altitude Azimuth Distance (km) Brightness Sun altitude
Rises 01:32:15 0° 316° (NW) 3,909 5.7 -9.1°
Reaches altitude 10° 01:34:57 10° 316° (NW) 2,925 5.1 -8.9°
Maximum altitude 01:41:52 84° 231° (SW) 1,058 2.7 -8.1°
Drops below altitude 10° 01:48:30 10° 143° (SE) 2,814 4.8 -7.4°
Sets 01:51:04 0° 143° (SE) 3,753 5.5 -7.1°
